| time (UTC) | temp C | wind direction | speed KPH | gust KPH | rain 1hr cm | rain 24hr cm | rain mn cm | humidity % | barometer mb |
| 20260507022703 | 10 | 237 | 0.0 | 3.2 | 0.00 | 0.79 | 0.53 | 66 | 1014.5 |
| 20260507021803 | 10 | 226 | 0.0 | 3.2 | 0.00 | 0.81 | 0.53 | 65 | 1014.4 |
| 20260507020924 | 10 | 232 | 0.0 | 3.2 | 0.00 | 0.81 | 0.53 | 65 | 1014.4 |
| 20260507020003 | 10 | 0 | 0.0 | 0.0 | 0.00 | 0.81 | 0.53 | 65 | 1014.4 |
| 20260507015403 | 10 | 0 | 0.0 | 0.0 | 0.00 | 0.84 | 0.53 | 65 | 1014.3 |
| 20260507014503 | 10 | 269 | 0.0 | 1.6 | 0.00 | 0.86 | 0.53 | 64 | 1014.3 |
| 20260507013624 | 10 | 274 | 0.0 | 1.6 | 0.00 | 0.86 | 0.53 | 63 | 1014.2 |
| 20260507012724 | 10 | 269 | 0.0 | 1.6 | 0.00 | 0.89 | 0.53 | 63 | 1014.2 |
| 20260507011803 | 10 | 272 | 0.0 | 1.6 | 0.00 | 0.91 | 0.53 | 62 | 1014.1 |
| 20260507010924 | 10 | 272 | 0.0 | 1.6 | 0.00 | 0.94 | 0.53 | 61 | 1013.8 |
| 20260507010004 | 10 | 272 | 0.0 | 3.2 | 0.00 | 0.99 | 0.53 | 60 | 1013.6 |
| 20260507005403 | 10 | 272 | 0.0 | 1.6 | 0.00 | 0.99 | 0.53 | 60 | 1013.7 |
| 20260507004503 | 11 | 273 | 0.0 | 1.6 | 0.00 | 1.02 | 0.53 | 59 | 1013.7 |
| 20260507003603 | 11 | 279 | 0.0 | 3.2 | 0.00 | 1.07 | 0.53 | 59 | 1013.7 |
| 20260507002703 | 11 | 262 | 0.0 | 3.2 | 0.00 | 1.09 | 0.53 | 59 | 1013.7 |
| 20260507001803 | 11 | 229 | 0.0 | 3.2 | 0.00 | 1.12 | 0.53 | 57 | 1013.7 |
| 20260507000903 | 11 | 252 | 0.0 | 3.2 | 0.00 | 1.17 | 0.53 | 56 | 1013.6 |
| 20260507000004 | 11 | 251 | 1.6 | 4.8 | 0.00 | 1.19 | 0.53 | 55 | 1013.6 |
| 20260506235403 | 12 | 268 | 1.6 | 4.8 | 0.00 | 1.22 | 0.53 | 54 | 1013.5 |
| 20260506234503 | 12 | 255 | 1.6 | 9.7 | 0.00 | 1.22 | 0.53 | 52 | 1013.5 |
| 20260506233624 | 12 | 253 | 3.2 | 14.5 | 0.00 | 1.24 | 0.53 | 51 | 1013.7 |
| 20260506232703 | 12 | 261 | 3.2 | 14.5 | 0.00 | 1.27 | 0.53 | 51 | 1013.7 |
| 20260506231824 | 13 | 242 | 3.2 | 12.9 | 0.00 | 1.30 | 0.53 | 48 | 1013.7 |
| 20260506230903 | 13 | 231 | 3.2 | 11.3 | 0.00 | 1.32 | 0.53 | 48 | 1013.8 |
| 20260506230004 | 12 | 228 | 4.8 | 12.9 | 0.00 | 1.35 | 0.53 | 50 | 1013.7 |
| 20260506225425 | 12 | 214 | 4.8 | 16.1 | 0.00 | 1.37 | 0.53 | 49 | 1013.8 |
| 20260506224503 | 12 | 266 | 3.2 | 11.3 | 0.00 | 1.40 | 0.53 | 49 | 1013.9 |
| 20260506223624 | 12 | 248 | 4.8 | 16.1 | 0.00 | 1.45 | 0.53 | 51 | 1014.0 |
| 20260506222703 | 12 | 252 | 3.2 | 9.7 | 0.00 | 1.47 | 0.53 | 52 | 1013.8 |
| 20260506221803 | 12 | 263 | 4.8 | 16.1 | 0.00 | 1.50 | 0.53 | 49 | 1013.8 |
| 20260506220903 | 12 | 265 | 3.2 | 16.1 | 0.00 | 1.50 | 0.53 | 50 | 1013.8 |
| 20260506220024 | 12 | 289 | 1.6 | 9.7 | 0.00 | 1.52 | 0.53 | 51 | 1013.7 |
| 20260506215403 | 12 | 277 | 3.2 | 12.9 | 0.00 | 1.52 | 0.53 | 50 | 1013.8 |
| 20260506214503 | 12 | 294 | 3.2 | 8.0 | 0.00 | 1.55 | 0.53 | 50 | 1013.8 |
| 20260506213603 | 12 | 307 | 4.8 | 14.5 | 0.00 | 1.57 | 0.53 | 49 | 1013.7 |
| 20260506212703 | 12 | 295 | 4.8 | 14.5 | 0.00 | 1.57 | 0.53 | 49 | 1013.8 |
| 20260506211803 | 12 | 305 | 4.8 | 14.5 | 0.00 | 1.60 | 0.53 | 49 | 1013.7 |
| 20260506210903 | 12 | 281 | 3.2 | 12.9 | 0.00 | 1.60 | 0.53 | 50 | 1013.6 |
| 20260506210004 | 12 | 296 | 4.8 | 11.3 | 0.00 | 1.60 | 0.53 | 48 | 1013.6 |
| 20260506205403 | 12 | 310 | 4.8 | 11.3 | 0.00 | 1.63 | 0.53 | 48 | 1013.5 |
| 20260506204503 | 12 | 299 | 3.2 | 9.7 | 0.00 | 1.63 | 0.53 | 48 | 1013.6 |
| 20260506203603 | 12 | 280 | 3.2 | 11.3 | 0.00 | 1.65 | 0.53 | 47 | 1013.5 |
| 20260506202703 | 12 | 271 | 4.8 | 12.9 | 0.00 | 1.68 | 0.53 | 46 | 1013.6 |
| 20260506201803 | 12 | 295 | 4.8 | 14.5 | 0.00 | 1.70 | 0.53 | 46 | 1013.7 |
| 20260506200903 | 12 | 289 | 3.2 | 12.9 | 0.00 | 1.75 | 0.53 | 47 | 1013.7 |
| 20260506200004 | 12 | 295 | 4.8 | 12.9 | 0.00 | 1.80 | 0.53 | 47 | 1013.7 |
| 20260506195403 | 12 | 295 | 4.8 | 14.5 | 0.00 | 1.85 | 0.53 | 47 | 1013.7 |
| 20260506194503 | 12 | 275 | 4.8 | 14.5 | 0.00 | 1.91 | 0.53 | 47 | 1013.6 |
| 20260506193603 | 12 | 301 | 4.8 | 17.7 | 0.00 | 1.96 | 0.53 | 46 | 1013.6 |
| 20260506192703 | 12 | 291 | 3.2 | 12.9 | 0.00 | 1.98 | 0.53 | 46 | 1013.6 |
| 20260506191803 | 12 | 282 | 3.2 | 12.9 | 0.00 | 2.03 | 0.53 | 48 | 1013.6 |
| 20260506190903 | 12 | 311 | 6.4 | 14.5 | 0.00 | 2.06 | 0.53 | 46 | 1013.6 |
| 20260506190004 | 13 | 318 | 4.8 | 16.1 | 0.00 | 2.06 | 0.53 | 46 | 1013.6 |
| 20260506185403 | 13 | 241 | 6.4 | 14.5 | 0.00 | 2.06 | 0.53 | 46 | 1013.6 |
| 20260506184503 | 12 | 241 | 3.2 | 12.9 | 0.00 | 2.08 | 0.53 | 51 | 1013.5 |
| 20260506183603 | 12 | 286 | 3.2 | 9.7 | 0.00 | 2.11 | 0.53 | 49 | 1013.6 |
| 20260506182703 | 12 | 310 | 3.2 | 14.5 | 0.00 | 2.13 | 0.53 | 48 | 1013.6 |
| 20260506181803 | 12 | 308 | 3.2 | 14.5 | 0.00 | 2.18 | 0.53 | 48 | 1013.7 |
| 20260506180903 | 12 | 305 | 4.8 | 12.9 | 0.00 | 2.24 | 0.53 | 46 | 1013.6 |
| 20260506180004 | 13 | 289 | 4.8 | 11.3 | 0.00 | 2.26 | 0.53 | 48 | 1013.6 |
| 20260506175403 | 13 | 295 | 3.2 | 11.3 | 0.00 | 2.26 | 0.53 | 47 | 1013.4 |
| 20260506174503 | 12 | 306 | 3.2 | 6.4 | 0.00 | 2.26 | 0.53 | 49 | 1013.6 |
| 20260506173603 | 12 | 319 | 3.2 | 11.3 | 0.00 | 2.29 | 0.53 | 50 | 1013.6 |
| 20260506172703 | 12 | 290 | 3.2 | 9.7 | 0.00 | 2.31 | 0.53 | 48 | 1013.6 |
| 20260506171803 | 12 | 295 | 3.2 | 9.7 | 0.00 | 2.34 | 0.53 | 49 | 1013.6 |
| 20260506170903 | 12 | 301 | 3.2 | 12.9 | 0.00 | 2.36 | 0.53 | 51 | 1013.8 |
| 20260506170003 | 11 | 342 | 3.2 | 8.0 | 0.00 | 2.39 | 0.53 | 53 | 1013.7 |
| 20260506165403 | 11 | 340 | 3.2 | 8.0 | 0.00 | 2.41 | 0.53 | 53 | 1013.7 |
| 20260506164503 | 11 | 299 | 3.2 | 11.3 | 0.00 | 2.44 | 0.53 | 52 | 1013.9 |
| 20260506163603 | 11 | 301 | 3.2 | 12.9 | 0.00 | 2.49 | 0.53 | 54 | 1013.9 |
| 20260506162703 | 11 | 332 | 4.8 | 17.7 | 0.00 | 2.54 | 0.53 | 54 | 1014.0 |
| 20260506161803 | 11 | 346 | 6.4 | 17.7 | 0.00 | 2.54 | 0.53 | 52 | 1014.0 |
| 20260506160903 | 11 | 313 | 3.2 | 11.3 | 0.00 | 2.57 | 0.53 | 55 | 1013.9 |
| 20260506160004 | 11 | 345 | 4.8 | 11.3 | 0.00 | 2.57 | 0.53 | 54 | 1013.9 |
| 20260506155424 | 11 | 338 | 6.4 | 14.5 | 0.00 | 2.57 | 0.53 | 53 | 1014.1 |
| 20260506154503 | 11 | 331 | 4.8 | 14.5 | 0.00 | 2.57 | 0.53 | 51 | 1014.0 |
| 20260506153603 | 11 | 2 | 4.8 | 12.9 | 0.00 | 2.57 | 0.53 | 51 | 1013.7 |
| 20260506152703 | 11 | 352 | 4.8 | 12.9 | 0.00 | 2.57 | 0.53 | 51 | 1013.7 |
| 20260506151803 | 11 | 358 | 4.8 | 14.5 | 0.00 | 2.57 | 0.53 | 52 | 1013.6 |
| 20260506150903 | 11 | 342 | 6.4 | 14.5 | 0.00 | 2.57 | 0.53 | 55 | 1013.6 |
| 20260506150003 | 11 | 1 | 6.4 | 16.1 | 0.00 | 2.57 | 0.53 | 56 | 1013.4 |
| 20260506145403 | 10 | 348 | 6.4 | 16.1 | 0.00 | 2.57 | 0.53 | 54 | 1013.5 |
| 20260506144503 | 11 | 336 | 6.4 | 16.1 | 0.00 | 2.57 | 0.53 | 55 | 1013.4 |
| 20260506143603 | 11 | 10 | 4.8 | 12.9 | 0.00 | 2.57 | 0.53 | 60 | 1013.4 |
| 20260506142704 | 10 | 19 | 6.4 | 17.7 | 0.00 | 2.57 | 0.53 | 59 | 1013.2 |
| 20260506141824 | 10 | 5 | 8.0 | 16.1 | 0.00 | 2.57 | 0.53 | 59 | 1013.1 |
| 20260506140903 | 10 | 7 | 6.4 | 16.1 | 0.00 | 2.57 | 0.53 | 63 | 1013.2 |
| 20260506140003 | 10 | 350 | 8.0 | 16.1 | 0.00 | 2.57 | 0.53 | 62 | 1013.0 |
| 20260506135425 | 10 | 357 | 6.4 | 14.5 | 0.00 | 2.57 | 0.53 | 62 | 1012.9 |
| 20260506134504 | 9 | 346 | 6.4 | 14.5 | 0.00 | 2.57 | 0.53 | 64 | 1012.8 |
| 20260506133603 | 9 | 353 | 4.8 | 16.1 | 0.00 | 2.57 | 0.53 | 65 | 1012.9 |
| 20260506132703 | 8 | 335 | 6.4 | 14.5 | 0.00 | 2.57 | 0.53 | 69 | 1012.9 |
| 20260506131803 | 8 | 2 | 4.8 | 14.5 | 0.00 | 2.57 | 0.53 | 75 | 1012.8 |
| 20260506130903 | 8 | 352 | 6.4 | 16.1 | 0.00 | 2.57 | 0.53 | 80 | 1012.5 |
| 20260506130003 | 7 | 338 | 4.8 | 12.9 | 0.00 | 2.57 | 0.53 | 86 | 1012.5 |
| 20260506125403 | 7 | 326 | 4.8 | 14.5 | 0.00 | 2.57 | 0.53 | 90 | 1012.4 |
| 20260506124503 | 7 | 320 | 4.8 | 9.7 | 0.00 | 2.57 | 0.53 | 93 | 1012.3 |
| 20260506123603 | 7 | 317 | 3.2 | 8.0 | 0.00 | 2.57 | 0.53 | 95 | 1012.1 |
| 20260506122703 | 7 | 308 | 3.2 | 8.0 | 0.00 | 2.57 | 0.53 | 94 | 1012.1 |
| 20260506121803 | 6 | 302 | 1.6 | 8.0 | 0.00 | 2.57 | 0.53 | 95 | 1012.1 |
| 20260506120903 | 6 | 306 | 1.6 | 3.2 | 0.00 | 2.57 | 0.53 | 95 | 1011.7 |
| 20260506120004 | 6 | 305 | 0.0 | 4.8 | 0.00 | 2.57 | 0.53 | 95 | 1011.4 |
| 20260506115404 | 6 | 305 | 0.0 | 3.2 | 0.00 | 2.57 | 0.53 | 95 | 1011.6 |
| 20260506114524 | 6 | 271 | 0.0 | 3.2 | 0.00 | 2.57 | 0.53 | 95 | 1011.6 |
| 20260506113603 | 6 | 289 | 0.0 | 1.6 | 0.00 | 2.57 | 0.53 | 95 | 1011.5 |
| 20260506112703 | 6 | 318 | 0.0 | 1.6 | 0.00 | 2.57 | 0.53 | 95 | 1011.3 |
| 20260506111803 | 6 | 318 | 0.0 | 3.2 | 0.00 | 2.57 | 0.53 | 94 | 1011.0 |
| 20260506110903 | 6 | 299 | 0.0 | 4.8 | 0.00 | 2.57 | 0.53 | 94 | 1010.9 |
| 20260506110003 | 6 | 266 | 0.0 | 3.2 | 0.00 | 2.57 | 0.53 | 94 | 1010.6 |
| 20260506105424 | 6 | 266 | 0.0 | 3.2 | 0.00 | 2.57 | 0.53 | 94 | 1010.7 |
| 20260506104503 | 6 | 269 | 0.0 | 1.6 | 0.00 | 2.57 | 0.53 | 94 | 1010.4 |
| 20260506103603 | 6 | 262 | 0.0 | 4.8 | 0.00 | 2.57 | 0.53 | 94 | 1010.6 |
| 20260506102703 | 6 | 300 | 0.0 | 4.8 | 0.00 | 2.57 | 0.53 | 94 | 1010.5 |
| 20260506101803 | 6 | 285 | 1.6 | 4.8 | 0.00 | 2.57 | 0.53 | 94 | 1010.3 |
| 20260506100903 | 6 | 256 | 0.0 | 4.8 | 0.00 | 2.57 | 0.53 | 94 | 1010.2 |
| 20260506100004 | 6 | 273 | 0.0 | 1.6 | 0.00 | 2.57 | 0.53 | 94 | 1010.0 |
| 20260506095403 | 6 | 282 | 0.0 | 6.4 | 0.00 | 2.57 | 0.53 | 94 | 1009.9 |
| 20260506094503 | 6 | 280 | 0.0 | 3.2 | 0.00 | 2.57 | 0.53 | 94 | 1009.9 |
| 20260506093603 | 6 | 308 | 1.6 | 4.8 | 0.00 | 2.57 | 0.53 | 94 | 1009.9 |
| 20260506092703 | 6 | 264 | 0.0 | 3.2 | 0.00 | 2.57 | 0.53 | 94 | 1010.0 |
| 20260506091824 | 6 | 0 | 0.0 | 0.0 | 0.00 | 2.57 | 0.53 | 94 | 1010.0 |
| 20260506090903 | 6 | 0 | 0.0 | 0.0 | 0.00 | 2.57 | 0.53 | 94 | 1009.8 |
| 20260506090003 | 6 | 0 | 0.0 | 0.0 | 0.00 | 2.57 | 0.53 | 94 | 1009.8 |
| 20260506085403 | 6 | 0 | 0.0 | 0.0 | 0.00 | 2.57 | 0.53 | 94 | 1010.0 |
| 20260506084503 | 6 | 0 | 0.0 | 0.0 | 0.00 | 2.57 | 0.53 | 94 | 1009.9 |
| 20260506083603 | 6 | 0 | 0.0 | 0.0 | 0.00 | 2.57 | 0.53 | 94 | 1009.8 |
| 20260506082703 | 6 | 0 | 0.0 | 0.0 | 0.00 | 2.57 | 0.53 | 94 | 1010.1 |
| 20260506081824 | 5 | 0 | 0.0 | 0.0 | 0.00 | 2.57 | 0.53 | 94 | 1009.9 |
| 20260506080903 | 5 | 0 | 0.0 | 0.0 | 0.00 | 2.57 | 0.53 | 94 | 1009.6 |
| 20260506072703 | 5 | 0 | 0.0 | 0.0 | 0.13 | 2.59 | 0.53 | 93 | 1009.3 |
| 20260506071803 | 5 | 0 | 0.0 | 0.0 | 0.15 | 2.67 | 0.53 | 93 | 1009.2 |
| 20260506070904 | 5 | 0 | 0.0 | 0.0 | 0.18 | 2.72 | 0.53 | 93 | 1009.6 |
| 20260506061803 | 6 | 256 | 0.0 | 1.6 | 0.13 | 2.59 | 0.38 | 93 | 1010.1 |
| 20260506060903 | 6 | 262 | 0.0 | 3.2 | 0.13 | 2.57 | 0.36 | 92 | 1010.2 |
| 20260506050903 | 6 | 0 | 0.0 | 0.0 | 0.20 | 2.44 | 0.23 | 91 | 1009.7 |
| 20260506044503 | 6 | 0 | 0.0 | 0.0 | 0.18 | 2.36 | 0.15 | 91 | 1010.0 |
| 20260506043603 | 6 | 0 | 0.0 | 0.0 | 0.15 | 2.31 | 0.10 | 91 | 1010.2 |
| 20260506042724 | 6 | 0 | 0.0 | 0.0 | 0.15 | 2.29 | 0.08 | 91 | 1010.5 |
| 20260506041803 | 6 | 41 | 0.0 | 1.6 | 0.15 | 2.26 | 0.05 | 91 | 1010.2 |
| 20260506040924 | 6 | 41 | 0.0 | 1.6 | 0.18 | 2.24 | 0.03 | 90 | 1009.9 |
| 20260506040004 | 6 | 53 | 0.0 | 3.2 | 0.20 | 2.21 | 0.00 | 91 | 1009.9 |
| 20260506035403 | 6 | 55 | 1.6 | 3.2 | 0.20 | 2.21 | 2.21 | 90 | 1009.9 |
| 20260506034524 | 6 | 59 | 0.0 | 4.8 | 0.20 | 2.18 | 2.18 | 91 | 1010.0 |
| 20260506033603 | 6 | 66 | 0.0 | 4.8 | 0.20 | 2.16 | 2.16 | 90 | 1009.9 |
| 20260506032704 | 6 | 0 | 0.0 | 0.0 | 0.18 | 2.13 | 2.13 | 90 | 1010.0 |
| 20260506031803 | 6 | 66 | 0.0 | 3.2 | 0.18 | 2.11 | 2.11 | 90 | 1010.1 |
| 20260506030903 | 6 | 51 | 0.0 | 3.2 | 0.13 | 2.06 | 2.06 | 90 | 1010.2 |
| 20260506030004 | 6 | 15 | 0.0 | 3.2 | 0.08 | 2.01 | 2.01 | 89 | 1010.1 |
| 20260506025403 | 6 | 14 | 1.6 | 8.0 | 0.10 | 2.01 | 2.01 | 89 | 1010.0 |
| 20260506024503 | 6 | 354 | 3.2 | 9.7 | 0.10 | 1.98 | 1.98 | 90 | 1009.9 |
| 20260506023603 | 7 | 352 | 4.8 | 14.5 | 0.08 | 1.96 | 1.96 | 90 | 1010.1 |